Regional Weather Roundup
Issued by NWS Spokane, WA

Home | Current Version | Previous Version | Text Only | Print | Product List | Glossary On
Versions: 1 2 3 4 5 6 7 8 9 10 11 12 13 14 15 16 17 18 19 20 21 22 23 24 25 26 27 28 29 30 31 32 33 34 35 36 37 38 39 40 41 42 43 44 45 46 47 48 49 50
252
NZUS01 KOTX 241925
RWROTX

Eastern Washington/Northern Idaho Roundup
National Weather Service, Spokane WA
1200 PM PDT FRI MAR 24 2017

Note: "fair" indicated few or no clouds below 12,000 feet with no
significant weather and/or obstructions to visibility.

...Northeast Washington and Northern Idaho Panhandle...

CITY           SKY/WX    TMP DP  RH WIND       PRES   REMARKS
Spokane Intl   LGT RAIN  43  41  93 SE5       29.84F FOG
Spokane Downto LGT RAIN  44  41  89 E6        29.86F
Coeur d Alene  LGT RAIN  40  37  89 N7        29.87F
Deer Park      LGT RAIN  40  38  93 NE5       29.85F
Sandpoint      DRIZZLE   37  36  93 NE7       29.88F
Bonners Ferry  FAIR      36  32  87 SW3       29.88F

...Southeast Washington and southern Idaho Panhandle...

CITY           SKY/WX    TMP DP  RH WIND       PRES   REMARKS
Walla Walla    LGT RAIN  53  43  68 S14G21    29.84F
Pullman/Moscow LGT RAIN  46  40  79 S6        29.87F
Lewiston       CLOUDY    51  36  56 VRB3      29.87F
Lowell           N/A     49  35  58 VRB3      29.90F
Grangeville    FAIR      50  36  57 SW21G28   29.86S

...Columbia Basin...

CITY           SKY/WX    TMP DP  RH WIND       PRES   REMARKS
Ephrata        LGT RAIN  42  37  82 S5        29.82F
Moses Lake     LGT RAIN  43  41  93 CALM      29.83F FOG
Pasco          LGT RAIN  49  46  90 S5        29.86F
Richland       LGT RAIN  49  48  97 CALM      29.85F
Hermiston      LGT RAIN  52  49  89 CALM      29.83S
Pendleton      LGT RAIN  50  44  80 SW6       29.83F

...East Slopes Cascades...

CITY           SKY/WX    TMP DP  RH WIND       PRES   REMARKS
The Dalles     LGT RAIN  49  44  83 NW10      29.89R
Yakima         CLOUDY    48  43  82 CALM      29.83S
Ellensburg     CLOUDY    45  39  79 MISG      29.81S
Wenatchee      CLOUDY    38  37  97 W5        29.84S
Omak           LGT RAIN  38  33  82 CALM      29.85F
Sunnyside      DRIZZLE   47  46  96 SE6       29.84S

...Southern British Columbia...

CITY           SKY/WX    TMP DP  RH WIND       PRES   REMARKS
Penticton      LGT RAIN  41  37  87 S10       29.81F
Castlegar      LGT RAIN  36  34  93 VRB2      29.88F
Cranbrook      CLOUDY    37  27  65 W5        29.86F
Osoyoos          N/A     39  37  93 SE8         N/A
Creston          N/A     39  34  81 SW3         N/A

...Western Montana...

CITY           SKY/WX    TMP DP  RH WIND       PRES   REMARKS
Kalispell      CLOUDY    40  26  57 CALM      29.88F
Missoula       CLOUDY    47  29  49 CALM      29.89F

...Neighboring Cities...

CITY           SKY/WX    TMP DP  RH WIND       PRES   REMARKS
Seattle        CLOUDY    53  44  71 S17       29.81S
Portland       CLOUDY    49  43  80 S12       29.92R
Boise          LGT RAIN  48  40  73 SE12      30.04S
Great Falls    CLOUDY    60  20  21 S21G28    29.87F
Calgary        CLOUDY    48  25  40 S20       29.71F



USA.gov is the U.S. government's official web portal to all federal, state and local government web resources and services.